EXPRESS-AT2

Last updated on Tue Sep 22 2026 00:03:13 GMT+0000 (Coordinated Universal Time)

1 39613U 14010B 26264.14378916 .00000074 00000+0 00000+0 0 9996 2 39613 0.0240 252.0360 0000580 213.4693 2.2924 1.00272840 45461
UTC large
Height (km)
Speed (km/s)
/
Latitude / Longitude
Inclination (degrees)
Orbital Period (minutes)
Azimuth
Elevation
Range (km)
Doppler Factor

Next 0 passes for location: London (51.5072 / 0.1276)

No passes found over London.
EXPRESS-AT2